This is the latest recevied weather packets stored in our database for station/object N5YHM-13. If no packets are shown the sender has not sent any weather packets the latest 10 day(s).
| Time | Temp. | Humidity | Pressure | Rain* | Wind** | Luminosity | Snow |
|---|---|---|---|---|---|---|---|
| 1787949108 | 32.78° C | 69% | 1017.3 hPa | 0 mm | - | 18 W/m² | - |
| 1787948804 | 32.22° C | 73% | 1017.2 hPa | 0 mm | - | 32 W/m² | - |
| 1787948503 | 32.22° C | 69% | 1017.3 hPa | 0 mm | - | 18 W/m² | - |
| 1787948199 | 32.78° C | 71% | 1017.1 hPa | 0 mm | - | 15 W/m² | - |
| 1787947897 | 32.78° C | 72% | 1017.3 hPa | 0 mm | - | 23 W/m² | - |
| 1787947594 | 32.78° C | 69% | 1017.3 hPa | 0 mm | - | 108 W/m² | - |
| 1787947292 | 32.78° C | 70% | 1017.2 hPa | 0 mm | - | 30 W/m² | - |
| 1787946992 | 32.22° C | 70% | 1017.1 hPa | 0 mm | - | 248 W/m² | - |
| 1787946690 | 32.78° C | 68% | 1017.5 hPa | 0 mm | - | 16 W/m² | - |
| 1787946385 | 32.78° C | 70% | 1017.4 hPa | 0 mm | - | 70 W/m² | - |
| 1787946085 | 32.78° C | 69% | 1017.2 hPa | 0 mm | - | 21 W/m² | - |
| 1787945780 | 32.78° C | 70% | 1017.4 hPa | 0 mm | - | 21 W/m² | - |
| 1787945475 | 32.22° C | 69% | 1017.6 hPa | 0 mm | - | 27 W/m² | - |
| 1787945171 | 32.22° C | 72% | 1017.5 hPa | 0 mm | - | 20 W/m² | - |
| 1787944868 | 32.22° C | 69% | 1017.7 hPa | 0 mm | - | 52 W/m² | - |
| 1787944563 | 32.22° C | 71% | 1017.9 hPa | 0 mm | - | 55 W/m² | - |
| 1787944259 | 31.67° C | 73% | 1018 hPa | 0 mm | - | 19 W/m² | - |
| 1787943958 | 31.67° C | 73% | 1018.1 hPa | 1.27 mm | - | 41 W/m² | - |
| 1787943654 | 32.22° C | 70% | 1017.9 hPa | 1.27 mm | - | 22 W/m² | - |
| 1787943353 | 31.67° C | 72% | 1018.3 hPa | 0 mm | - | 24 W/m² | - |
| 1787943049 | 31.67° C | 73% | 1018.1 hPa | 0 mm | - | 19 W/m² | - |
| 1787942743 | 32.22° C | 74% | 1018.2 hPa | 0 mm | - | 28 W/m² | - |
| 1787942439 | 32.22° C | 73% | 1018.2 hPa | 0 mm | - | 247 W/m² | - |
| 1787942138 | 32.22° C | 71% | 1018.2 hPa | 0 mm | - | 125 W/m² | - |
| 1787941834 | 32.22° C | 72% | 1018.5 hPa | 0 mm | - | 224 W/m² | - |
* Rain latest hour (hover to see other rain measurements)
** Current wind speed in m/s (hover to see current wind gust speed)